Location: Bougoura
(13.1861°N, 5.0773°W)
Time: 17:12:50
(UTC+00:00)

Delta 7925 Rocket - Pass Details

Date: 18 September 2020
Orbit: 645 x 1648 km, 26.3° (Epoch: 25 October)

Event Time Altitude Azimuth Distance (km) Brightness Sun altitude
Rises 19:39:13 0° 283° (WNW) 2,996 8.1 -20.3°
Reaches altitude 10° 19:41:32 10° 276° (W) 2,143 7.0 -20.9°
Maximum altitude 19:46:13 42° 205° (SSW) 1,094 4.4 -22.0°
Enters shadow 19:48:34 28° 156° (SSE) 1,498 4.7 -22.6°
